[[{"header":{"parameterUnit":"m.s-1","parameterCategory":1,"la1":30.2991,"la2":30.254,"lo1":-89.0895,"lo2":-89.0444,"dy":0.0017,"dx":0.0017,"nx":28,"ny":28,"refTime":"2025-06-06T09:00:00:Z","depth":0,"parameterNumber":2,"parameterNumberName":"U-component_of_WINDS"},"data":[0,0,0,0,0,0,0,0,0,0,0,0,0,0,0,0,0,0,0,0,0,0,0,0,0,0,0,0,0,0,0,0,0,0,0,0,0,0,0,0,0,0,0,0,0,0,0,0,0,0,0,0,0,0,0,0,0,0,1.4496,1.4497,0,1.4547,1.4548,1.4548,1.4473,1.447,1.4468,1.4465,1.4519,1.4523,1.4527,0,0,0,0,0,0,0,0,0,0,0,0,0,1.4335,1.4338,1.4496,1.4497,1.4498,1.4547,1.4548,1.4548,1.4473,1.447,1.4467,1.4464,1.4518,1.4522,1.4527,0,0,0,0,0,0,0,0,0,0,0,0,0,1.4398,1.434,1.4496,1.4466,1.4464,1.4547,1.4548,1.4549,1.4474,1.447,1.4466,1.4462,1.4516,1.4522,1.4528,1.4644,0,0,1.4546,1.4548,0,0,0,0,0,0,0,0,1.4394,1.4404,1.447,1.4468,1.4466,1.4499,1.4511,1.4581,1.4475,1.447,1.4465,1.446,1.4516,1.4522,1.454,1.4646,1.4648,1.4546,1.455,1.4552,1.4554,0,0,0,0,0,0,0,1.439,1.4401,1.4516,1.4471,1.4469,1.445,1.4455,1.4524,1.4515,1.447,1.4465,1.4472,1.4514,1.4534,1.4541,1.4649,1.4546,1.4551,1.4555,1.4557,1.4853,1.4857,0,0,0,0,0,0,1.4389,1.4398,1.4515,1.4518,1.4419,1.4456,1.4461,1.4493,1.4514,1.4513,1.4475,1.4468,1.4526,1.4534,1.4542,1.468,1.4552,1.4558,1.4561,1.4849,1.4854,1.4859,0,0,0,0,0,0,1.4386,1.44,1.4513,1.4456,1.4469,1.4463,1.4499,1.4496,1.4516,1.4517,1.4516,1.4498,1.4524,1.4534,1.4619,1.4681,1.456,1.4566,1.4843,1.485,1.4856,1.4956,0,0,0,0,0,0,1.4382,1.4399,1.4443,1.4458,1.4473,1.4589,1.4503,1.45,1.4526,1.4517,1.4538,1.4538,1.4521,1.461,1.4625,1.4687,1.457,1.4838,1.4846,1.4854,1.4947,1.4965,1.498,0,0,0,0,0,1.4376,1.447,1.4446,1.4461,1.4527,1.4592,1.4601,1.4579,1.4531,1.4576,1.4576,1.4537,1.4671,1.462,1.4635,1.47,1.4834,1.4844,1.4854,1.494,1.4961,1.498,0,0,0,0,0,0,1.4463,1.4471,1.4445,1.4546,1.4569,1.4579,1.4635,1.4603,1.4641,1.4631,1.4603,1.4609,1.47,1.4708,1.465,1.4813,1.4745,1.4758,1.4805,1.4826,1.4842,1.4839,1.4575,0,0,0,0,0,1.4494,1.4546,1.455,1.4639,1.4651,1.4641,1.4669,1.465,1.4673,1.4683,1.4689,1.4714,1.4761,1.4793,1.4837,1.4947,1.4951,1.4999,1.5015,1.5029,1.5042,1.5101,1.5122,1.4891,1.489,1.489,0,0,1.4559,1.4569,1.4604,1.4657,1.4672,1.4727,1.465,1.4711,1.4752,1.4692,1.4773,1.4779,1.4804,1.4902,1.4945,1.4911,1.5106,1.5041,1.5052,1.5057,1.5113,1.5135,1.5154,1.4897,1.4896,1.4895,0,0,1.4705,1.4718,1.4794,1.481,1.4835,1.4827,1.4845,1.486,1.4862,1.4942,1.4898,1.4946,1.5028,1.5048,1.5069,1.5221,1.5187,1.5236,1.5324,1.5382,1.54,1.5416,1.5472,1.5492,1.5248,1.5248,1.5249,0,1.4783,1.4863,1.4837,1.4901,1.4926,1.4873,1.495,1.4967,1.5005,1.5024,1.4984,1.5086,1.5099,1.5202,1.5239,1.5257,1.5277,1.5235,1.54,1.5416,1.543,1.5483,1.5504,1.5254,1.5254,1.5253,1.5253,0,1.4958,1.5015,1.5073,1.511,1.5141,1.5211,1.5196,1.523,1.5208,1.5205,1.5287,1.53,1.5346,1.5368,1.5348,1.5468,1.5446,1.5404,1.5335,1.5459,1.5508,1.5528,1.5263,1.5261,1.5259,1.5258,0,0,1.5163,1.5184,1.5206,1.5222,1.5244,1.5288,1.5355,1.5399,1.543,1.5457,1.5514,1.5584,1.5544,1.5568,1.5549,1.56,1.5721,1.5551,1.5551,1.5584,1.5855,1.5889,1.5913,1.5697,1.5701,1.5704,1.5854,0,1.531,1.5427,1.5405,1.5519,1.5571,1.5521,1.558,1.56,1.5598,1.5642,1.564,1.5691,1.5634,1.5648,1.5696,1.5696,1.5776,1.5685,1.5751,1.5754,1.5749,1.5938,1.5974,1.6115,1.5873,1.5876,1.5878,0,1.5498,1.5532,1.5652,1.5666,1.5687,1.574,1.5778,1.5821,1.5842,1.5837,1.5864,1.5835,1.5902,1.5831,1.5924,1.5863,1.5888,1.5892,1.5897,1.5904,1.5826,1.5953,1.6159,1.6182,1.5908,1.5906,1.5904,0,1.5638,1.5713,1.5795,1.581,1.5828,1.5866,1.5876,1.5893,1.5921,1.5954,1.5972,1.6013,1.6036,1.6069,1.6052,1.6001,1.6149,1.6075,1.6147,1.6148,1.6183,1.6182,1.6399,1.6196,1.6196,1.6195,1.6195,0,1.5806,1.5882,1.5858,1.5908,1.5991,1.5964,1.6047,1.605,1.6066,1.6117,1.6075,1.6123,1.6096,1.6143,1.6129,1.6209,1.622,1.6218,1.6214,1.6224,1.6224,1.6242,1.6232,1.6201,1.6199,1.6198,1.6197,0,1.5978,1.5964,1.605,1.6059,1.6063,1.6124,1.6132,1.6179,1.6173,1.6237,1.6251,1.6242,1.6294,1.628,1.6336,1.6327,1.6429,1.6412,1.6422,1.6419,1.6492,1.6487,1.6731,1.6762,1.6537,1.6539,1.6541,0,1.6087,1.6144,1.6159,1.6189,1.6202,1.6251,1.6279,1.6254,1.6285,1.6313,1.6357,1.6405,1.6443,1.6529,1.6528,1.6571,1.6555,1.6638,1.6562,1.6569,1.6559,1.6557,1.6563,1.6654,1.6656,1.6658,1.666,0,1.6283,1.6273,1.6315,1.6355,1.6389,1.6419,1.6445,1.6473,1.6449,1.6486,1.6538,1.6568,1.6625,1.6674,1.6713,1.6722,1.6689,1.6684,1.6703,1.6714,1.6719,1.6719,1.6466,1.6679,1.6677,1.6676,1.6675,1.6674,1.6428,1.6477,1.6495,1.6543,1.6559,1.6585,1.663,1.6629,1.6672,1.6717,1.6698,1.6759,1.6779,1.6828,1.6842,1.6889,1.6858,1.6886,1.6893,1.6901,1.6911,1.6709,1.6896,1.6895,1.6895,1.6895,1.6894,0,1.6624,1.6632,1.6677,1.6714,1.6752,1.6715,1.6741,1.6776,1.683,1.685,1.6888,1.6948,1.6995,1.6997,1.7041,1.7078,1.7064,1.7091,1.7089,1.7092,1.6936,1.6916,1.7102,1.7102,1.7102,1.7102,1.7102,1.7102,1.673,1.6811,1.6803,1.6891,1.6899,1.6958,1.6977,1.7,1.7016,1.7086,1.7124,1.7124,1.7138,1.7182,1.7224,1.7223,1.7242,1.7276,1.7269,1.7124,1.7103,1.7084,1.7065,1.7279,1.728,1.7422,1.7423,1.7424]},{"header":{"parameterUnit":"m.s-1","parameterCategory":1,"la1":30.2991,"la2":30.254,"lo1":-89.0895,"lo2":-89.0444,"dy":0.0017,"dx":0.0017,"nx":28,"ny":28,"refTime":"2025-06-06T09:00:00:Z","depth":0,"parameterNumber":3,"parameterNumberName":"V-component_of_WINDS"},"data":[0,0,0,0,0,0,0,0,0,0,0,0,0,0,0,0,0,0,0,0,0,0,0,0,0,0,0,0,0,0,0,0,0,0,0,0,0,0,0,0,0,0,0,0,0,0,0,0,0,0,0,0,0,0,0,0,0,0,5.6683,5.6684,0,5.6815,5.6817,5.6818,5.6765,5.6762,5.6759,5.6756,5.6883,5.6889,5.6896,0,0,0,0,0,0,0,0,0,0,0,0,0,5.6374,5.638,5.6683,5.6684,5.6686,5.6815,5.6817,5.6819,5.6766,5.6762,5.6758,5.6754,5.6881,5.6889,5.6896,0,0,0,0,0,0,0,0,0,0,0,0,0,5.6507,5.6382,5.6682,5.6675,5.6676,5.6815,5.6817,5.6819,5.6766,5.6762,5.6757,5.6753,5.6879,5.6888,5.6897,5.7048,0,0,5.6926,5.693,0,0,0,0,0,0,0,0,5.65,5.6519,5.6675,5.6676,5.6677,5.6769,5.6755,5.6895,5.6768,5.6732,5.6756,5.675,5.6848,5.686,5.6895,5.7054,5.7059,5.6927,5.6932,5.6936,5.6939,0,0,0,0,0,0,0,5.6491,5.6513,5.6735,5.6677,5.6678,5.6662,5.6676,5.6781,5.6814,5.6735,5.6731,5.6748,5.6848,5.6886,5.6897,5.7061,5.6926,5.6935,5.6941,5.6944,5.7348,5.7353,0,0,0,0,0,0,5.6482,5.6505,5.6731,5.6739,5.6576,5.6672,5.6687,5.6744,5.6813,5.6819,5.6752,5.6745,5.6872,5.6886,5.6902,5.7082,5.6936,5.6945,5.6951,5.7343,5.7349,5.7355,0,0,0,0,0,0,5.6476,5.6503,5.6725,5.6621,5.6648,5.6682,5.6746,5.6749,5.6787,5.6826,5.6831,5.6785,5.6869,5.6888,5.7012,5.7086,5.6949,5.6958,5.7337,5.7345,5.7352,5.7444,0,0,0,0,0,0,5.6468,5.6501,5.6561,5.6623,5.6654,5.6837,5.6751,5.6755,5.6804,5.6797,5.6858,5.6864,5.6867,5.6998,5.7021,5.7096,5.6965,5.7331,5.7341,5.735,5.7435,5.7454,5.7471,0,0,0,0,0,5.6457,5.658,5.6565,5.6592,5.6731,5.6841,5.6858,5.6862,5.681,5.6869,5.6894,5.6862,5.7074,5.7012,5.7037,5.7116,5.7326,5.7338,5.7349,5.7427,5.745,5.747,0,0,0,0,0,0,5.6524,5.6588,5.6572,5.672,5.6776,5.6832,5.6907,5.6887,5.6956,5.6946,5.6944,5.6958,5.7085,5.7112,5.7042,5.7264,5.7192,5.7209,5.7242,5.7265,5.7282,5.7273,5.6973,0,0,0,0,0,5.6556,5.6644,5.6694,5.682,5.6849,5.6873,5.6921,5.6919,5.6976,5.6998,5.7032,5.7086,5.7164,5.7216,5.729,5.7438,5.7449,5.7504,5.7522,5.7537,5.7551,5.763,5.7654,5.7392,5.7392,5.7392,0,0,5.6623,5.6669,5.6724,5.6834,5.6877,5.6965,5.6893,5.6989,5.7053,5.7012,5.7132,5.7158,5.7217,5.7354,5.7415,5.738,5.7626,5.7551,5.7562,5.7569,5.7644,5.7669,5.7691,5.74,5.7399,5.7398,0,0,5.679,5.6835,5.6944,5.6989,5.7056,5.7071,5.7097,5.7157,5.7174,5.7294,5.7264,5.7339,5.7474,5.7518,5.7557,5.7739,5.7712,5.7763,5.7857,5.7933,5.7954,5.7972,5.8036,5.8059,5.7778,5.7778,5.7778,0,5.6865,5.6999,5.7002,5.7101,5.7149,5.7118,5.7226,5.7269,5.7355,5.7388,5.7348,5.7517,5.7554,5.7699,5.7744,5.7778,5.7805,5.7756,5.7951,5.7969,5.7986,5.8047,5.8071,5.7784,5.7783,5.7783,5.7782,0,5.7086,5.7179,5.7259,5.7346,5.7403,5.7506,5.7522,5.7578,5.757,5.7589,5.771,5.7754,5.7837,5.787,5.7863,5.8014,5.799,5.7951,5.7878,5.8017,5.8074,5.8097,5.7792,5.779,5.7788,5.7787,0,0,5.73,5.7388,5.7417,5.7456,5.7527,5.7597,5.7697,5.778,5.7828,5.7888,5.797,5.8085,5.8049,5.8094,5.809,5.8157,5.8297,5.8109,5.811,5.8142,5.8465,5.8494,5.8521,5.8279,5.8283,5.8287,5.8459,0,5.7473,5.7653,5.7657,5.782,5.7905,5.7875,5.7962,5.8013,5.8032,5.8104,5.8123,5.8205,5.8152,5.8178,5.8244,5.8266,5.8362,5.8254,5.8353,5.8357,5.8339,5.8551,5.8582,5.8743,5.8482,5.8485,5.8488,0,5.7698,5.7768,5.7941,5.7998,5.8034,5.8112,5.8188,5.8258,5.8314,5.8322,5.8373,5.8359,5.8457,5.8382,5.8516,5.8443,5.8483,5.85,5.8506,5.8515,5.8431,5.8565,5.8795,5.8818,5.8523,5.8521,5.8518,0,5.7837,5.7973,5.8094,5.8128,5.8198,5.8254,5.8285,5.8336,5.8385,5.845,5.8481,5.8555,5.8596,5.8652,5.8657,5.8602,5.8792,5.8717,5.88,5.88,5.8842,5.8839,5.9081,5.8869,5.8868,5.8868,5.8867,0,5.8029,5.8135,5.8157,5.8231,5.8348,5.8351,5.8465,5.8491,5.8537,5.8613,5.8591,5.8662,5.8665,5.8737,5.8741,5.8851,5.8869,5.8877,5.8877,5.8879,5.8878,5.8906,5.8894,5.8874,5.8873,5.8872,5.8871,0,5.8203,5.8222,5.8352,5.8408,5.8424,5.8508,5.8554,5.8623,5.864,5.8736,5.8759,5.8784,5.8868,5.8878,5.8975,5.8978,5.911,5.9098,5.9092,5.909,5.9172,5.9164,5.9439,5.9475,5.924,5.9242,5.9244,0,5.8324,5.8406,5.8471,5.8522,5.8557,5.8639,5.8689,5.8694,5.8746,5.8816,5.8876,5.8957,5.9023,5.9157,5.9182,5.9255,5.9244,5.9335,5.9255,5.9254,5.9244,5.924,5.9247,5.9351,5.9353,5.9356,5.9357,0,5.8537,5.8543,5.8618,5.8697,5.8758,5.8819,5.8876,5.8918,5.893,5.8989,5.9076,5.9127,5.9226,5.9307,5.9379,5.9407,5.9384,5.9383,5.9405,5.9409,5.9402,5.9406,5.9134,5.9376,5.9374,5.9373,5.9372,5.9371,5.8688,5.8759,5.8816,5.89,5.8944,5.8998,5.9066,5.9091,5.9164,5.9248,5.9245,5.9339,5.939,5.9485,5.9518,5.959,5.956,5.9593,5.9601,5.961,5.9618,5.9391,5.9603,5.9603,5.9602,5.9602,5.9601,0,5.8899,5.8935,5.9012,5.9094,5.916,5.9134,5.9196,5.9251,5.9336,5.9387,5.9452,5.955,5.9628,5.9659,5.9734,5.9785,5.9776,5.9804,5.98,5.9807,5.9641,5.9614,5.981,5.981,5.981,5.981,5.981,5.981,5.9017,5.9135,5.9147,5.9285,5.9318,5.9413,5.945,5.9499,5.9539,5.9651,5.9716,5.9737,5.9779,5.9857,5.9925,5.9932,5.996,5.9993,5.9995,5.984,5.9819,5.9799,5.9773,6.0,6.0,6.0155,6.0157,6.0158]}]]